STARLINK-30515, 57983

Orbit data source: Space-Track

STARLINK-30515, 57983 is a payload satellite owned by SpaceX/Seattle (US) in LEO that was launched on Sat, 30 Sep 2023 UTC via an FALCON 9 launch vehicle from the Air Force Eastern Test Range (AFETR). Payload-class satellites include a variety of spacecraft equipped with specific instruments for various scientific and technological missions. These include communications satellites like Starlink; space stations such as the ISS; scientific satellites like the Hubble; Earth observation satellites from companies like Planet Labs, Umbra, and HawkEye 360; GPS; miniature CubeSats for education and research; and military/defense satellites.

Loading next visibility...
Identifier
57983, 2023-151V
Orbit
LEO
Country
Flag of USUS
Related business
Manufacturer
SpaceX/Seattle
Mission
Operational Commercial Communications
Bus & Motor
STARLINK V2M, Unknown motor
Mass
730 kg wet, ~700 kg dry
Launch date (UTC)
2023-09-30 (3 years ago)
Launch vehicle
FALCON 9
Launch site
Air Force Eastern Test Range (AFETR)
Object type
Payload
Rocket body
Debris
Shape & HBR
Box + 2 Pan, 17.7 m
Radar Cross Section
33.884 m², Large (>1 m²)

Expand to show TLE details & history
Last TLE update: 10 hours ago

TLE from 10 hours ago
0 STARLINK-30515
1 57983U 23151V   26130.08375022  .00000487  00000-0  27246-4 0  9997
2 57983  43.0010   7.2908 0001445 264.9480  95.1207 15.27570832144930
Epoch: 2026-05-10T02:00Z
TLE epoch observation values (Epoch: 2026-05-10T02:00:36.019Z)
Latitude
0.00002°
Longitude
109.24883°
Altitude
482.941 km
Speed
7.626 km/s
True Right ascension
00h 29m 09s
True Declination
0° 00' 00"
Sunlit
Object was in daylight at epoch
Visualization orbit readout
Latitude
Unknown
Longitude
Unknown
Altitude
Unknown
Speed
Unknown
Apparent Right ascension
Unknown
Apparent Declination
Unknown
Sunlit
N/A
Visualization observer readout
Local Sidereal Time
19:51:38
Azimuth
Unknown
Elevation
Unknown
Doppler factor
Unknown
Orbital elements
Apogee altitude
486.013 km
Perigee altitude
484.03 km
Semi-major axis
6,863.159 km
Eccentricity
0.00014
Inclination
43.001°
RAAN
7.2908°
Arg. of periapsis
264.948°
True anomaly
95.13719°
Mean anomaly
95.1207°
Eccentric anomaly
95.12895°
Mean motion
3.81731 °/min
Orbital period
94.31 mins
BSTAR
0.000027246
Loading maneuver chart data...
Computing Atmospheric mass density...
Loading historical data...
Loading historical data...
Loading historical data...
Loading historical data...
Loading historical data...
Loading historical data...
Loading historical data...

Documentation

Showing up to 5 results
|